This is the latest recevied weather packets stored in our database for station/object W6DSP. If no packets are shown the sender has not sent any weather packets the latest 10 day(s).
| Time | Temp. | Humidity | Pressure | Rain* | Wind** | Luminosity | Snow |
|---|---|---|---|---|---|---|---|
| 1777563971 | 11.67° C | 65% | 1017.8 hPa | 0 mm | - | - | - |
| 1777563262 | 11.67° C | 65% | 1017.8 hPa | 0 mm | - | - | - |
| 1777562507 | 11.11° C | 68% | 1017.7 hPa | 0 mm | - | - | - |
| 1777561770 | 10.56° C | 74% | 1017.8 hPa | 0 mm | - | - | - |
| 1777561020 | 10° C | 71% | 1017.8 hPa | 0 mm | - | - | - |
| 1777560306 | 9.44° C | 70% | 1017.7 hPa | 0 mm | - | - | - |
| 1777559548 | 10° C | 72% | 1017.8 hPa | 0 mm | - | - | - |
| 1777558820 | 9.44° C | 74% | 1017.9 hPa | 0 mm | - | - | - |
| 1777558089 | 8.89° C | 73% | 1017.8 hPa | 0 mm | - | - | - |
| 1777557364 | 8.33° C | 73% | 1017.6 hPa | 0 mm | - | - | - |
| 1777556629 | 7.78° C | 76% | 1017.5 hPa | 0 mm | - | - | - |
| 1777555883 | 8.33° C | 79% | 1017.5 hPa | 0 mm | - | - | - |
| 1777555153 | 7.22° C | 79% | 1017.3 hPa | 0 mm | - | - | - |
| 1777554396 | 6.67° C | 78% | 1017.2 hPa | 0 mm | - | - | - |
| 1777553639 | 6.11° C | 80% | 1017.2 hPa | 0 mm | - | - | - |
| 1777552928 | 6.11° C | 82% | 1017.3 hPa | 0 mm | - | - | - |
| 1777552183 | 5.56° C | 84% | 1017.3 hPa | 0 mm | - | - | - |
| 1777551447 | 5° C | 86% | 1017.2 hPa | 0 mm | - | - | - |
| 1777550730 | 4.44° C | 87% | 1017.2 hPa | 0 mm | - | - | - |
| 1777549977 | 4.44° C | 88% | 1017 hPa | 0 mm | - | - | - |
| 1777549278 | 3.89° C | 88% | 1017 hPa | 0 mm | - | - | - |
| 1777548583 | 3.33° C | 88% | 1016.9 hPa | 0 mm | - | - | - |
| 1777547884 | 3.33° C | 88% | 1017 hPa | 0 mm | - | - | - |
| 1777547151 | 3.33° C | 88% | 1016.9 hPa | 0 mm | - | - | - |
| 1777546395 | 3.33° C | 88% | 1016.9 hPa | 0 mm | - | - | - |
* Rain latest hour (hover to see other rain measurements)
** Current wind speed in m/s (hover to see current wind gust speed)